User: anonymous   Login
Location: Unspecified
(0.0000°N, 0.0000°E)
Time: 23:44:41
(UTC+00:00)
Language:

Vela 1A - Orbit

View from above orbital plane
View from above orbital plane
View from above satellite
View from above satellite

Ground track
Ground track

The orbit data is extracted from the following two-line orbital elements,

1 00692U 63039C   14304.07366955 -.00000710  00000-0  00000+0 0   147
2 00692 032.2437 008.7822 5765200 144.9333 002.3807 00.22018195 41192
Epoch (UTC): 31 October 2014 01:46:05
Eccentricity: 0.5765200
inclination: 32.2437°
perigee height: 42680 km
apogee height: 176253 km
right ascension of ascending node: 8.7822°
argument of perigee: 144.9333°
revolutions per day: 0.22018195
mean anomaly at epoch: 2.3807°
orbit number at epoch: 4119

The dashed part of the orbit path shows where the satellite is in the earth's shadow,  

DLR